{"data":{"norad_id":47366,"intl_designator":"2021-005T","name":"STARLINK-2081","alt_names":[],"object_type":"PAYLOAD","status":"ACTIVE","operator":null,"country":"US","launch_date":"2021-01-20","launch_site_code":"AFETR","launch_vehicle":null,"mission":null,"orbit_class":"UNKNOWN","rcs_meters":null,"size_class":null,"mass_kg":null,"dimensions":null,"purposes":["comms"],"wikipedia_slug":null,"has_3d_model":false,"image_url":null,"decayed_at":null,"tle_current":{"epoch":"2026-09-19T15:38:20.922720Z","epoch_age_seconds":95138,"freshness":"FRESH","line1":"1 47366U 21005T   26262.65163105 -.00000021  00000+0  11104-4 0  9993","line2":"2 47366  53.1600 239.9267 0001297  88.2897 271.8253 15.31697228312741","mean_motion":15.31697228,"eccentricity":0.0001297,"inclination_deg":53.16,"raan_deg":239.9267,"arg_perigee_deg":88.2897,"mean_anomaly_deg":271.8253,"bstar":1.1104e-5,"rev_number":31274,"period_min":94.013358102127,"perigee_km":469.85995800785,"apogee_km":471.63655884388,"semimajor_km":6848.8852584259,"source":"CELESTRAK","updated_at":"2026-09-20T09:00:38.590714Z"}}}